Location: Gajan
(43.0218°N, 1.1244°E)
Time: 15:36:08
(UTC+00:00)

Cosmos 1076 Rocket - Pass Details

Date: 22 April 2021
Orbit: 589 x 613 km, 82.5° (Epoch: 12 May)

Event Time Altitude Azimuth Distance (km) Brightness Sun altitude
Rises 19:51:32 0° 354° (N) 2,875 7.5 -11.7°
Reaches altitude 10° 19:53:47 10° 358° (N) 1,962 6.6 -12.1°
Maximum altitude 19:58:05 63° 80° (E) 675 3.5 -12.7°
Enters shadow 20:01:45 14° 160° (SSE) 1,701 5.4 -13.3°
